Regional Weather Roundup
Issued by NWS

Home | Current Version | Previous Version | Graphics & Text | Print | Product List | Glossary On
Versions: 1 2 3 4 5 6 7 8 9 10 11 12 13 14 15 16 17 18 19 20 21 22 23 24 25 26 27 28
000
ASUS45 KPSR 252310
RWRAZ

ARIZONA HOURLY REGIONAL WEATHER ROUNDUP
NATIONAL WEATHER SERVICE PHOENIX AZ
400 PM MST MON SEP 25 2017

NOTE: FAIR INDICATES FEW OR NO CLOUDS BELOW 12,000 FEET WITH NO
SIGNIFICANT WEATHER AND/OR OBSTRUCTIONS TO VISIBILITY.

AZZ001>003-036-260000-
NORTHWEST ARIZONA

CITY           SKY/WX    TMP DP  RH WIND       PRES   REMARKS
BULLHEAD CITY  SUNNY     84  23  10 N20       29.76F
KINGMAN        SUNNY     76  24  14 NW9       29.89F
$$

AZZ004>008-015-016-018-260000-
NORTH CENTRAL ARIZONA

CITY           SKY/WX    TMP DP  RH WIND       PRES   REMARKS
GRAND CANYON   PTSUNNY   64  18  17 NE10      30.03S
WILLIAMS       MOSUNNY   64  12  13 W6        30.00F
PRESCOTT       SUNNY     72  12  10 N8        29.92F
FLAGSTAFF      MOSUNNY   62   9  12 VRB3      30.03F
PAYSON           N/A     73   7   7 VRB5G12   29.92S
PAGE           SUNNY     69  19  15 N10       29.95F
$$

AZZ009>014-017-260000-
NORTHEAST ARIZONA

CITY           SKY/WX    TMP DP  RH WIND       PRES   REMARKS
WINSLOW        SUNNY     72  11   9 W7        29.95F
SAINT JOHNS    SUNNY     72  10   9 VRB7      29.94F
WINDOW ROCK    SUNNY     68  12  11 NE8       30.00F
SHOW LOW       SUNNY     66  14  13 N7G16     30.00S
$$

AZZ540-542>544-546-548-260000-
GREATER PHOENIX AREA

CITY           SKY/WX    TMP DP  RH WIND       PRES   REMARKS
PHOENIX        MOSUNNY   88  16   7 VRB3      29.70F
BUCKEYE        MOSUNNY   86  18   8 SW6       29.72F
GLENDALE       MOSUNNY   88  10   5 SE5       29.73F
LUKE AFB       SUNNY     87  19   8 CALM      29.70F
DEER VALLEY    SUNNY     86  15   7 W9        29.72F
SCOTTSDALE     SUNNY     87  16   7 VRB3      29.74F
MESA-GATEWAY   MOSUNNY   84  19   9 CALM      29.74F
CHANDLER       SUNNY     86  50  28 SW6       29.73F
$$

AZZ539-553-260000-
SOUTHWEST MARICOPA COUNTY AND PINAL COUNTY

CITY           SKY/WX    TMP DP  RH WIND       PRES   REMARKS
CASA GRANDE    NOT AVBL
GILA BEND      MOSUNNY   86  11   6 W3        29.71F
$$

AZZ503-504-507>509-260000-
SOUTHEAST ARIZONA

CITY           SKY/WX    TMP DP  RH WIND       PRES   REMARKS
TUCSON         SUNNY     86  21   9 N12       29.79F
DAVIS-MONTHAN  SUNNY     85  20   9 NW10      29.77F
RYAN FIELD     SUNNY     84  19   9 NW8       29.78F
NOGALES        SUNNY     82  31  15 VRB5      29.84F
SIERRA VISTA   SUNNY     80  26  14 W8        29.88F
DOUGLAS        SUNNY     82  31  15 W5        29.84F
SAFFORD        SUNNY     84  26  12 NW13G20   29.77F
$$

AZZ532-260000-
SOUTHWEST ARIZONA

CITY           SKY/WX    TMP DP  RH WIND       PRES   REMARKS
YUMA           MOSUNNY   91  21   8 VRB7      29.72F
$$

CAZ041-043-047-048-061-525>527-560>570-260000-
SOUTHERN CALIFORNIA

CITY           SKY/WX    TMP DP  RH WIND       PRES   REMARKS
DOWNTOWN L.A.  SUNNY     84  31  14 VRB5      29.76F
L.A. AIRPORT   MOSUNNY   79  47  32 W17       29.77F
SAN DIEGO      MOSUNNY   78  55  44 NW15      29.78F
BURBANK        SUNNY     83  23  11 S14       29.78F
ONTARIO        PTSUNNY   87  21   9 SW7       29.77F
RIVERSIDE      SUNNY     88  26  10 VRB7      29.76F
PALM SPRINGS   SUNNY     90  22   8 SW6       29.77F
EL CENTRO NAS  MOSUNNY   90  14   6 NW10      29.75F
IMPERIAL       SUNNY     90  25   9 N10       29.73F
BLYTHE         SUNNY     89  19   7 VRB5      29.73F
NEEDLES        SUNNY     87  17   7 NE13G20   29.78F
$$

NVZ020-UTZ003-260000-
SOUTHERN NEVADA-UTAH

CITY           SKY/WX    TMP DP  RH WIND       PRES   REMARKS
LAS VEGAS      MOSUNNY   78  26  14 NE10      29.88F
SALT LAKE CITY MOSUNNY   61  36  39 N10       30.10S
$$

NMZ009-TXZ055-260000-
NEW MEXICO-WEST TEXAS

CITY           SKY/WX    TMP DP  RH WIND       PRES   REMARKS
ALBUQUERQUE    MOSUNNY   74  15  10 N7        29.93S
EL PASO        MOSUNNY   85  29  13 VRB3      29.81S
$$


........................KEY........................
SKY/WX - SKY CONDITION/WEATHER
TMP    - TEMPERATURE IN FAHRENHEIT
DP     - DEW POINT IN FAHRENHEIT
RH     - RELATIVE HUMIDITY IN PERCENT
WIND   - DIRECTION AND SPEED IN MILES PER HOUR (MPH)
VRB    - VARIABLE WIND DIRECTION
PRES   - MEAN SEA LEVEL PRESSURE IN INCHES OF MERCURY
         F - FALLING PRESSURE   R - RISING PRESSURE
         S - STEADY PRESSURE
VSB    - VISIBILITY IN MILES
HX     - HEAT INDEX IN FAHRENHEIT
WCI    - WIND CHILL INDEX IN FAHRENHEIT
TC     - TEMPERATURE IN CELSIUS WHICH IS ALSO KNOWN AS
         TEMPERATURE IN CENTIGRADE
AFB    - AIR FORCE BASE
         LUKE AFB IS LUKE AIR FORCE BASE
         DAVIS-MONTHAN IS DAVIS-MONTHAN AIR FORCE BASE
NAS    - NAVAL AIR STATION
         EL CENTRO NAS IS EL CENTRO NAVAL AIR STATION
N/A    - NOT AVAILABLE





USA.gov is the U.S. government's official web portal to all federal, state and local government web resources and services.